Time,TemperatureF,DewpointF,PressureIn,WindDirection,WindDirectionDegrees,WindSpeedMPH,WindSpeedGustMPH,Humidity,HourlyPrecipIn,Conditions,Clouds,dailyrainin,SoftwareType,DateUTC
2013-03-19 00:00:00,56.1,53.5,29.86,NNE,25,0.0,0.0,91,0.00,,---,0.00,VWS V13.01,2013-03-19 04:00:00,
2013-03-19 00:15:00,56.0,53.4,29.85,NNE,25,0.0,0.0,91,0.00,,---,0.00,VWS V13.01,2013-03-19 04:15:00,
2013-03-19 00:30:00,56.2,53.3,29.85,NNE,25,0.0,0.0,90,0.00,,---,0.00,VWS V13.01,2013-03-19 04:30:00,
2013-03-19 00:45:00,56.5,53.6,29.84,NNE,25,0.0,0.0,90,0.00,,---,0.00,VWS V13.01,2013-03-19 04:45:00,
2013-03-19 01:00:00,56.5,53.3,29.83,NE,37,0.0,0.0,89,0.00,,---,0.00,VWS V13.01,2013-03-19 05:00:00,
2013-03-19 01:15:00,56.4,52.9,29.82,NE,36,3.0,3.0,88,0.00,,---,0.00,VWS V13.01,2013-03-19 05:15:00,
2013-03-19 01:30:00,56.3,52.8,29.81,NE,36,0.0,0.0,88,0.00,,---,0.00,VWS V13.01,2013-03-19 05:30:00,
2013-03-19 01:45:00,56.2,52.4,29.81,NE,34,0.0,0.0,87,0.00,,---,0.00,VWS V13.01,2013-03-19 05:45:00,
2013-03-19 02:00:00,56.3,52.5,29.81,NE,34,0.0,0.0,87,0.00,,---,0.00,VWS V13.01,2013-03-19 06:00:00,
2013-03-19 02:15:00,56.5,52.4,29.79,NE,34,0.0,0.0,86,0.00,,---,0.00,VWS V13.01,2013-03-19 06:15:00,
2013-03-19 02:30:00,56.6,52.2,29.81,NW,306,2.0,6.0,85,0.02,,---,0.02,VWS V13.01,2013-03-19 06:30:00,
2013-03-19 02:45:00,56.7,51.9,29.79,West,279,0.0,1.0,84,0.22,,---,0.22,VWS V13.01,2013-03-19 06:45:00,
2013-03-19 03:30:00,57.4,51.3,29.76,ESE,107,9.0,10.0,80,0.30,,---,0.30,VWS V13.01,2013-03-19 07:30:00,
2013-03-19 03:45:00,57.4,51.0,29.75,ESE,104,5.0,9.0,79,0.29,,---,0.31,VWS V13.01,2013-03-19 07:45:00,
2013-03-19 04:00:00,58.1,51.3,29.73,ESE,103,5.0,9.0,78,0.10,,---,0.32,VWS V13.01,2013-03-19 08:00:00,
2013-03-19 04:15:00,58.4,51.2,29.73,ESE,109,6.0,6.0,77,0.07,,---,0.32,VWS V13.01,2013-03-19 08:15:00,
2013-03-19 04:30:00,58.1,50.2,29.74,ESE,111,5.0,6.0,75,0.04,,---,0.32,VWS V13.01,2013-03-19 08:30:00,
2013-03-19 04:45:00,57.7,49.5,29.75,ESE,110,0.0,0.0,74,0.02,,---,0.32,VWS V13.01,2013-03-19 08:45:00,
2013-03-19 05:00:00,57.6,48.7,29.77,NW,316,3.0,10.0,72,0.01,,---,0.32,VWS V13.01,2013-03-19 09:00:00,
2013-03-19 05:15:00,59.2,49.8,29.78,WNW,303,4.0,6.0,71,0.00,,---,0.32,VWS V13.01,2013-03-19 09:15:00,
2013-03-19 05:30:00,59.7,49.5,29.78,WNW,282,2.0,3.0,69,0.00,,---,0.32,VWS V13.01,2013-03-19 09:30:00,
2013-03-19 05:45:00,59.5,48.5,29.79,WNW,299,2.0,7.0,67,0.00,,---,0.32,VWS V13.01,2013-03-19 09:45:00,
2013-03-19 06:00:00,59.1,47.0,29.79,WNW,288,0.0,3.0,64,0.00,,---,0.32,VWS V13.01,2013-03-19 10:00:00,
2013-03-19 06:15:00,58.7,45.7,29.80,NW,317,4.0,6.0,62,0.00,,---,0.32,VWS V13.01,2013-03-19 10:15:00,
2013-03-19 06:30:00,58.3,44.0,29.80,WNW,294,3.0,7.0,59,0.00,,---,0.32,VWS V13.01,2013-03-19 10:30:00,
2013-03-19 06:45:00,58.4,43.2,29.81,WNW,299,4.0,4.0,57,0.00,,---,0.32,VWS V13.01,2013-03-19 10:45:00,
2013-03-19 07:00:00,58.2,41.7,29.81,WNW,297,8.0,8.0,54,0.00,,---,0.32,VWS V13.01,2013-03-19 11:00:00,
2013-03-19 07:15:00,57.7,39.7,29.82,WNW,292,4.0,7.0,51,0.00,,---,0.32,VWS V13.01,2013-03-19 11:15:00,
2013-03-19 07:30:00,58.1,39.1,29.83,NW,307,1.0,6.0,49,0.00,,---,0.32,VWS V13.01,2013-03-19 11:30:00,
2013-03-19 07:45:00,58.4,37.7,29.82,WNW,296,5.0,6.0,46,0.00,,---,0.32,VWS V13.01,2013-03-19 11:45:00,
2013-03-19 08:00:00,57.7,35.4,29.83,WNW,290,4.0,11.0,43,0.00,,---,0.32,VWS V13.01,2013-03-19 12:00:00,
2013-03-19 08:15:00,57.5,34.0,29.84,WNW,290,9.0,10.0,41,0.00,,---,0.32,VWS V13.01,2013-03-19 12:15:00,
2013-03-19 08:30:00,57.2,31.8,29.84,NNW,328,10.0,11.0,38,0.00,,---,0.32,VWS V13.01,2013-03-19 12:30:00,
2013-03-19 08:45:00,57.8,31.0,29.83,NW,311,4.0,14.0,36,0.00,,---,0.32,VWS V13.01,2013-03-19 12:45:00,
2013-03-19 09:00:00,58.9,29.9,29.83,WNW,297,1.0,6.0,33,0.00,,---,0.32,VWS V13.01,2013-03-19 13:00:00,
2013-03-19 09:15:00,59.4,28.8,29.84,West,281,5.0,10.0,31,0.00,,---,0.32,VWS V13.01,2013-03-19 13:15:00,
2013-03-19 09:30:00,59.5,28.9,29.82,NW,319,9.0,9.0,31,0.00,,---,0.32,VWS V13.01,2013-03-19 13:30:00,
2013-03-19 10:00:00,59.8,27.5,29.82,NNW,335,0.0,9.0,29,0.00,,---,0.32,VWS V13.01,2013-03-19 14:00:00,
2013-03-19 10:15:00,61.6,29.9,29.83,NW,316,0.0,11.0,30,0.00,,---,0.32,VWS V13.01,2013-03-19 14:15:00,
2013-03-19 10:30:00,61.9,36.0,29.85,WNW,301,0.0,10.0,38,0.00,,---,0.32,VWS V13.01,2013-03-19 14:30:00,
2013-03-19 10:45:00,63.0,36.3,29.84,NNW,342,0.0,5.0,37,0.00,,---,0.32,VWS V13.01,2013-03-19 14:45:00,
2013-03-19 11:00:00,62.9,42.4,29.84,NNW,346,10.0,10.0,47,0.00,,---,0.32,VWS V13.01,2013-03-19 15:00:00,
2013-03-19 11:30:00,65.4,47.8,29.85,NW,314,1.0,9.0,53,0.00,,---,0.32,VWS V13.01,2013-03-19 15:30:00,
2013-03-19 11:45:00,66.1,52.7,29.85,NNW,345,4.0,13.0,62,0.00,,---,0.32,VWS V13.01,2013-03-19 15:45:00,
2013-03-19 12:00:00,65.5,53.0,29.85,NW,325,5.0,7.0,64,0.00,,---,0.32,VWS V13.01,2013-03-19 16:00:00,
2013-03-19 12:15:00,65.0,52.5,29.85,NNE,17,6.0,9.0,64,0.00,,---,0.32,VWS V13.01,2013-03-19 16:15:00,
2013-03-19 12:30:00,65.5,53.0,29.85,North,355,0.0,5.0,64,0.00,,---,0.32,VWS V13.01,2013-03-19 16:30:00,
2013-03-19 12:45:00,67.0,54.4,29.84,North,360,10.0,10.0,64,0.00,,---,0.32,VWS V13.01,2013-03-19 16:45:00,
2013-03-19 13:00:00,67.4,54.8,29.84,NW,307,3.0,4.0,64,0.00,,---,0.32,VWS V13.01,2013-03-19 17:00:00,
2013-03-19 13:15:00,67.7,55.1,29.84,NW,307,0.0,4.0,64,0.00,,---,0.32,VWS V13.01,2013-03-19 17:15:00,
2013-03-19 13:30:00,68.3,55.7,29.83,NNE,15,1.0,9.0,64,0.00,,---,0.32,VWS V13.01,2013-03-19 17:30:00,
2013-03-19 13:45:00,68.5,55.4,29.83,NNW,344,0.0,7.0,63,0.00,,---,0.32,VWS V13.01,2013-03-19 17:45:00,
2013-03-19 14:15:00,69.7,55.2,29.82,WNW,295,1.0,3.0,60,0.00,,---,0.32,VWS V13.01,2013-03-19 18:15:00,
2013-03-19 14:30:00,70.4,54.5,29.81,WNW,291,0.0,6.0,57,0.00,,---,0.32,VWS V13.01,2013-03-19 18:30:00,
2013-03-19 14:45:00,70.6,54.2,29.81,West,271,0.0,5.0,56,0.00,,---,0.32,VWS V13.01,2013-03-19 18:45:00,
2013-03-19 15:00:00,65.3,52.4,29.81,SSW,200,7.0,9.0,63,0.00,,---,0.32,VWS V13.01,2013-03-19 19:00:00,
2013-03-19 15:15:00,62.9,49.3,29.82,SW,217,6.0,7.0,61,0.00,,---,0.32,VWS V13.01,2013-03-19 19:15:00,
2013-03-19 15:30:00,61.3,47.3,29.82,SW,217,14.0,14.0,60,0.00,,---,0.32,VWS V13.01,2013-03-19 19:30:00,
2013-03-19 15:45:00,60.9,45.6,29.83,SW,224,10.0,11.0,57,0.00,,---,0.32,VWS V13.01,2013-03-19 19:45:00,
2013-03-19 16:00:00,60.3,44.6,29.83,SW,227,12.0,16.0,56,0.00,,---,0.32,VWS V13.01,2013-03-19 20:00:00,
2013-03-19 16:15:00,60.1,42.9,29.84,SW,229,11.0,13.0,53,0.00,,---,0.32,VWS V13.01,2013-03-19 20:15:00,
2013-03-19 16:30:00,59.4,39.7,29.84,SW,225,13.0,15.0,48,0.00,,---,0.32,VWS V13.01,2013-03-19 20:30:00,
2013-03-19 16:45:00,59.1,36.7,29.84,SW,231,12.0,15.0,43,0.00,,---,0.32,VWS V13.01,2013-03-19 20:45:00,
2013-03-19 17:00:00,59.1,34.8,29.84,SW,214,13.0,14.0,40,0.00,,---,0.32,VWS V13.01,2013-03-19 21:00:00,
2013-03-19 17:45:00,58.9,29.1,29.86,WSW,248,5.0,6.0,32,0.00,,---,0.32,VWS V13.01,2013-03-19 21:45:00,
2013-03-19 18:00:00,58.5,28.0,29.87,WSW,250,7.0,10.0,31,0.00,,---,0.32,VWS V13.01,2013-03-19 22:00:00,
2013-03-19 18:15:00,58.1,26.9,29.87,West,261,10.0,11.0,30,0.00,,---,0.32,VWS V13.01,2013-03-19 22:15:00,
2013-03-19 18:30:00,58.0,26.0,29.88,WSW,257,9.0,13.0,29,0.00,,---,0.32,VWS V13.01,2013-03-19 22:30:00,
2013-03-19 18:45:00,58.0,24.2,29.89,West,259,9.0,12.0,27,0.00,,---,0.32,VWS V13.01,2013-03-19 22:45:00,
2013-03-19 19:00:00,57.8,20.3,29.89,WSW,250,11.0,13.0,23,0.00,,---,0.32,VWS V13.01,2013-03-19 23:00:00,
2013-03-19 19:15:00,57.5,17.9,29.90,West,269,5.0,9.0,21,0.00,,---,0.32,VWS V13.01,2013-03-19 23:15:00,
2013-03-19 19:30:00,57.2,15.3,29.90,West,261,5.0,6.0,19,0.00,,---,0.32,VWS V13.01,2013-03-19 23:30:00,
2013-03-19 19:45:00,57.0,12.6,29.91,West,259,5.0,7.0,17,0.00,,---,0.32,VWS V13.01,2013-03-19 23:45:00,
2013-03-19 20:00:00,56.9,9.8,29.92,WSW,257,9.0,10.0,15,0.00,,---,0.32,VWS V13.01,2013-03-20 00:00:00,
2013-03-19 21:21:00,56.8,8.1,29.92,West,263,6.0,10.0,14,0.00,,---,0.32,VWS V13.01,2013-03-20 01:21:00,
2013-03-19 21:30:00,55.5,3.7,29.95,WNW,289,0.0,0.0,12,0.00,,---,0.32,VWS V13.01,2013-03-20 01:30:00,
2013-03-19 21:36:00,56.6,8.0,29.93,West,269,6.0,7.0,14,0.00,,---,0.32,VWS V13.01,2013-03-20 01:36:00,
2013-03-19 21:51:00,56.2,6.0,29.93,West,269,7.0,9.0,13,0.00,,---,0.32,VWS V13.01,2013-03-20 01:51:00,
2013-03-19 22:06:00,55.8,7.3,29.94,West,281,3.0,6.0,14,0.00,,---,0.32,VWS V13.01,2013-03-20 02:06:00,
2013-03-19 22:15:00,54.0,33.7,29.95,WNW,299,1.0,5.0,46,0.00,,---,0.32,VWS V13.01,2013-03-20 02:15:00,
2013-03-19 22:21:00,55.3,5.3,29.94,WNW,289,0.0,4.0,13,0.00,,---,0.32,VWS V13.01,2013-03-20 02:21:00,
2013-03-19 22:51:00,54.4,10.5,29.95,WNW,292,3.0,4.0,17,0.00,,---,0.32,VWS V13.01,2013-03-20 02:51:00,
2013-03-19 23:00:00,53.0,39.9,29.95,NNW,329,0.0,4.0,61,0.00,,---,0.32,VWS V13.01,2013-03-20 03:00:00,
2013-03-19 23:06:00,54.0,21.6,29.95,NW,308,2.0,4.0,28,0.00,,---,0.32,VWS V13.01,2013-03-20 03:06:00,
2013-03-19 23:15:00,52.8,40.6,29.95,NW,316,0.0,4.0,63,0.00,,---,0.32,VWS V13.01,2013-03-20 03:15:00,
2013-03-19 23:36:00,54.0,38.7,29.95,NW,322,0.0,0.0,56,0.00,,---,0.32,VWS V13.01,2013-03-20 03:36:00,
2013-03-19 23:45:00,52.6,40.0,29.95,NNW,328,3.0,5.0,62,0.00,,---,0.32,VWS V13.01,2013-03-20 03:45:00,
2013-03-19 23:51:00,53.6,40.1,29.95,NW,317,0.0,5.0,60,0.00,,---,0.32,VWS V13.01,2013-03-20 03:51:00,